PACCTY Weather Reports


Display with metric or nautical units.
time (UTC)temp
F
wind
direction
speed
MPH
gust
MPH
rain 1hr
in
rain 24hr
in
rain mn
in
humidity
%
barometer
mb
20260906024839 60 0 0.0 0.0 0.00 0.06 0.05 94 1015.6
20260906024340 60 0 0.0 0.0 0.00 0.06 0.05 94 1015.5
20260906023339 60 0 0.0 0.0 0.00 0.06 0.05 94 1015.5
20260906022839 60 0 0.0 0.0 0.00 0.06 0.05 94 1015.4
20260906022342 60 0 0.0 0.0 0.00 0.06 0.05 94 1015.4
20260906021339 61 0 0.0 0.0 0.00 0.06 0.05 94 1015.5
20260906020839 61 0 0.0 0.0 0.00 0.06 0.05 94 1015.5
20260906020341 61 0 0.0 0.0 0.01 0.07 0.05 94 1015.4
20260906015839 61 0 0.0 0.0 0.01 0.07 0.05 94 1015.5
20260906015340 61 0 0.0 0.0 0.01 0.07 0.05 94 1015.6
20260906014839 61 0 0.0 0.0 0.01 0.07 0.05 94 1015.7
20260906014340 61 0 0.0 0.0 0.01 0.07 0.05 94 1015.7
20260906013841 61 0 0.0 0.0 0.01 0.07 0.05 94 1015.6
20260906013339 61 0 0.0 3.0 0.01 0.07 0.05 94 1015.6
20260906012839 61 0 0.0 3.0 0.01 0.07 0.05 94 1015.6
20260906012342 61 208 0.0 3.0 0.01 0.07 0.05 94 1015.6
20260906011839 61 196 3.0 5.0 0.01 0.07 0.05 93 1015.6
20260906011339 61 210 0.0 5.0 0.01 0.07 0.05 93 1015.5
20260906010839 61 0 0.0 0.0 0.01 0.07 0.05 93 1015.5
20260906010339 61 0 0.0 0.0 0.00 0.06 0.05 93 1015.4
20260906005839 61 0 0.0 0.0 0.00 0.06 0.04 93 1015.4
20260906005342 61 0 0.0 0.0 0.00 0.06 0.04 93 1015.4
20260906004839 61 0 0.0 0.0 0.00 0.06 0.04 93 1015.5
20260906004339 61 0 0.0 0.0 0.00 0.06 0.04 93 1015.4
20260906003841 61 0 0.0 0.0 0.00 0.06 0.04 93 1015.6
20260906003339 62 0 0.0 3.0 0.00 0.06 0.04 92 1015.6
20260906002839 62 207 0.0 3.0 0.00 0.06 0.04 92 1015.6
20260906002340 62 0 0.0 1.0 0.00 0.06 0.04 91 1015.6
20260906001839 62 0 0.0 0.0 0.00 0.06 0.04 91 1015.6
20260906001342 62 214 0.0 6.0 0.00 0.06 0.04 91 1015.6
20260906000839 63 219 2.0 6.0 0.00 0.06 0.04 91 1015.6
20260905235839 63 0 4.0 4.0 0.00 0.07 0.04 91 1015.4
20260905234839 63 212 0.0 6.0 0.00 0.07 0.04 91 1015.3
20260905234341 63 270 3.0 6.0 0.00 0.07 0.04 92 1015.3
20260905233839 63 231 0.0 5.0 0.00 0.07 0.04 92 1015.3
20260905233339 63 0 2.0 5.0 0.00 0.07 0.04 94 1015.3
20260905232839 63 238 0.0 5.0 0.00 0.07 0.04 95 1015.3
20260905232340 62 0 1.0 3.0 0.00 0.07 0.04 94 1015.4
20260905231840 62 0 0.0 0.0 0.00 0.07 0.04 95 1015.4
20260905231339 62 0 0.0 0.0 0.00 0.07 0.04 94 1015.5
20260905230839 62 0 0.0 0.0 0.00 0.07 0.04 95 1015.5
20260905230339 62 0 0.0 0.0 0.00 0.07 0.04 95 1015.3
20260905225839 62 0 0.0 0.0 0.00 0.07 0.04 95 1015.6
20260905224839 62 0 0.0 0.0 0.00 0.07 0.04 94 1015.8
20260905224340 62 0 0.0 0.0 0.00 0.07 0.04 95 1015.8
20260905223839 61 0 0.0 0.0 0.00 0.07 0.04 95 1015.8
20260905223339 61 0 0.0 0.0 0.00 0.07 0.04 95 1015.7
20260905222839 61 0 0.0 0.0 0.00 0.07 0.04 94 1015.9
20260905222340 61 0 0.0 0.0 0.00 0.07 0.04 95 1016.0
20260905221840 61 0 0.0 0.0 0.00 0.07 0.04 95 1016.1
20260905221339 61 0 0.0 0.0 0.00 0.07 0.04 95 1016.1
20260905220839 61 0 0.0 0.0 0.00 0.07 0.04 96 1016.2
20260905220340 61 0 0.0 0.0 0.00 0.08 0.04 96 1016.2
20260905215839 61 0 0.0 0.0 0.00 0.08 0.04 95 1016.2
20260905215340 61 0 0.0 0.0 0.00 0.08 0.04 95 1016.3
20260905214839 61 0 0.0 0.0 0.00 0.08 0.04 96 1016.3
20260905214340 61 0 0.0 0.0 0.00 0.08 0.04 96 1016.3
20260905213839 61 0 0.0 0.0 0.00 0.08 0.04 96 1016.3
20260905213339 61 0 0.0 0.0 0.01 0.08 0.04 96 1016.3
20260905212839 61 0 0.0 0.0 0.01 0.08 0.04 96 1016.3
20260905212340 61 0 0.0 0.0 0.01 0.08 0.04 96 1016.3
20260905211839 61 0 0.0 0.0 0.01 0.08 0.04 96 1016.2
20260905211339 61 0 0.0 0.0 0.01 0.08 0.04 96 1016.3
20260905210839 61 0 0.0 0.0 0.01 0.08 0.04 96 1016.3
20260905210339 61 0 0.0 0.0 0.01 0.07 0.04 96 1016.3
20260905205839 61 0 0.0 0.0 0.01 0.07 0.04 96 1016.3
20260905205340 61 0 0.0 0.0 0.01 0.07 0.04 96 1016.4
20260905204839 61 0 0.0 0.0 0.01 0.07 0.04 96 1016.2
20260905204339 61 0 0.0 0.0 0.01 0.07 0.04 96 1016.4
20260905203839 61 0 0.0 0.0 0.01 0.07 0.04 95 1016.4
20260905203339 61 0 0.0 0.0 0.00 0.07 0.04 95 1016.4
20260905202839 61 0 0.0 0.0 0.00 0.07 0.03 95 1016.2
20260905202340 61 0 0.0 0.0 0.00 0.07 0.03 95 1016.4
20260905201839 61 0 0.0 0.0 0.00 0.07 0.03 95 1016.3
20260905201339 61 0 0.0 0.0 0.00 0.07 0.03 95 1016.3
20260905200839 61 0 0.0 0.0 0.00 0.07 0.03 95 1016.3
20260905200339 61 0 0.0 0.0 0.00 0.08 0.03 95 1016.3
20260905195839 61 0 0.0 0.0 0.00 0.08 0.03 95 1016.3
20260905195340 61 0 0.0 0.0 0.00 0.08 0.03 94 1016.3
20260905194839 61 0 0.0 0.0 0.00 0.08 0.03 94 1016.3
20260905194339 61 0 0.0 0.0 0.00 0.08 0.03 94 1016.4
20260905193839 61 0 0.0 0.0 0.00 0.08 0.03 95 1016.3
20260905193339 61 0 0.0 0.0 0.00 0.08 0.03 95 1016.2
20260905192839 61 0 0.0 0.0 0.00 0.08 0.03 95 1016.4
20260905192340 61 0 0.0 0.0 0.00 0.08 0.03 95 1016.3
20260905191839 61 0 0.0 6.0 0.00 0.08 0.03 96 1016.3
20260905191340 61 217 0.0 6.0 0.00 0.08 0.03 96 1016.3
20260905190839 61 235 0.0 4.0 0.00 0.08 0.03 96 1016.3
20260905190340 60 0 0.0 1.0 0.00 0.08 0.03 96 1016.3
20260905185839 60 0 0.0 0.0 0.00 0.08 0.03 96 1016.3
20260905185340 60 0 0.0 0.0 0.00 0.08 0.03 97 1016.3
20260905184927 60 0 0.0 0.0 0.00 0.08 0.03 97 1016.2
20260905184839 60 0 0.0 0.0 0.00 0.08 0.03 97 1016.2
20260905184340 60 0 0.0 0.0 0.00 0.08 0.03 97 1016.2
20260905183839 60 0 0.0 0.0 0.00 0.08 0.03 97 1016.2
20260905183339 60 0 0.0 0.0 0.00 0.08 0.03 98 1016.2
20260905182839 60 0 0.0 0.0 0.00 0.08 0.03 98 1016.2
20260905182342 60 0 0.0 0.0 0.00 0.08 0.03 98 1016.2
20260905181839 60 0 0.0 0.0 0.00 0.08 0.03 98 1016.2
20260905181339 60 0 0.0 0.0 0.00 0.08 0.03 98 1016.3
20260905180839 60 0 0.0 0.0 0.00 0.08 0.03 98 1016.2
20260905180339 60 0 0.0 0.0 0.00 0.09 0.03 99 1016.3
20260905175839 60 0 0.0 0.0 0.00 0.09 0.03 99 1016.3
20260905175340 59 0 0.0 0.0 0.00 0.09 0.03 99 1016.2
20260905174839 59 0 0.0 0.0 0.00 0.09 0.03 99 1016.3
20260905174339 60 0 0.0 0.0 0.00 0.09 0.03 99 1016.2
20260905173839 60 0 0.0 0.0 0.00 0.09 0.03 99 1016.2
20260905172839 60 0 0.0 0.0 0.00 0.09 0.03 99 1016.2
20260905171839 60 0 0.0 0.0 0.00 0.09 0.03 99 1016.1
20260905171338 60 0 0.0 0.0 0.00 0.09 0.03 99 1016.1
20260905170839 60 0 0.0 0.0 0.00 0.09 0.03 100 1016.1
20260905165839 59 0 0.0 0.0 0.01 0.09 0.03 100 1016.0
20260905165342 59 0 0.0 0.0 0.01 0.09 0.03 100 1016.0
20260905164838 59 0 0.0 0.0 0.01 0.09 0.03 100 1015.9
20260905164340 58 0 0.0 0.0 0.01 0.09 0.03 100 1015.9
20260905163838 58 0 0.0 0.0 0.01 0.09 0.03 100 1015.9
20260905163340 58 0 0.0 0.0 0.01 0.09 0.03 100 1015.9
20260905162838 58 0 0.0 0.0 0.01 0.09 0.03 100 1015.9
20260905162342 58 0 0.0 0.0 0.01 0.09 0.03 100 1016.0
20260905161838 58 0 0.0 0.0 0.01 0.09 0.03 100 1016.0
20260905161338 57 0 0.0 0.0 0.01 0.09 0.03 100 1015.9
20260905160839 57 0 0.0 0.0 0.01 0.09 0.03 100 1016.0
20260905160340 57 0 0.0 0.0 0.00 0.09 0.03 100 1016.0
20260905155838 57 0 0.0 0.0 0.00 0.09 0.03 100 1016.0
20260905155342 57 0 0.0 0.0 0.00 0.09 0.02 100 1016.1
20260905154838 57 0 0.0 0.0 0.00 0.09 0.02 100 1016.1
20260905154338 57 0 0.0 0.0 0.00 0.09 0.02 100 1016.0
20260905153838 57 0 0.0 0.0 0.00 0.09 0.02 100 1016.1
20260905153339 56 0 0.0 0.0 0.00 0.09 0.02 100 1016.0
20260905152838 56 0 0.0 0.0 0.00 0.09 0.02 100 1016.1
20260905152340 56 0 0.0 0.0 0.00 0.09 0.02 100 1016.1
20260905151838 56 0 0.0 0.0 0.00 0.09 0.02 100 1016.1
20260905151338 56 0 0.0 0.0 0.00 0.09 0.02 100 1016.1
20260905150838 56 0 0.0 0.0 0.00 0.09 0.02 100 1016.1
20260905150338 56 0 0.0 0.0 0.00 0.09 0.02 100 1016.0
20260905145838 56 0 0.0 0.0 0.00 0.09 0.02 100 1016.0
20260905145340 56 0 0.0 0.0 0.00 0.09 0.02 100 1016.0
20260905144838 56 0 0.0 0.0 0.00 0.09 0.02 100 1016.0
20260905144338 56 0 0.0 0.0 0.00 0.09 0.02 100 1016.0
20260905143838 56 0 0.0 0.0 0.00 0.09 0.02 100 1016.0
20260905143339 56 0 0.0 0.0 0.00 0.09 0.02 100 1016.0
20260905142839 56 0 0.0 0.0 0.00 0.09 0.02 100 1015.9
20260905142341 56 0 0.0 0.0 0.00 0.09 0.02 100 1015.9
20260905141838 56 0 0.0 0.0 0.00 0.09 0.02 100 1015.9
20260905141338 56 0 0.0 0.0 0.00 0.09 0.02 100 1015.9
20260905140838 56 0 0.0 0.0 0.00 0.09 0.02 100 1015.8
20260905140338 56 0 0.0 0.0 0.00 0.10 0.02 100 1015.8
20260905135838 56 0 0.0 0.0 0.00 0.10 0.02 100 1015.8
20260905135340 56 0 0.0 0.0 0.00 0.10 0.02 100 1015.7
20260905134838 56 0 0.0 0.0 0.00 0.10 0.02 100 1015.7
20260905134339 56 0 0.0 0.0 0.00 0.10 0.02 100 1015.7
20260905133839 56 0 0.0 0.0 0.00 0.10 0.02 100 1015.7
20260905133339 55 0 0.0 0.0 0.00 0.10 0.02 100 1015.7
20260905132838 55 0 0.0 0.0 0.00 0.10 0.02 100 1015.6
20260905132341 55 0 0.0 0.0 0.00 0.10 0.02 100 1015.6
20260905131838 55 0 0.0 0.0 0.00 0.10 0.02 100 1015.6
20260905131338 55 0 0.0 0.0 0.00 0.10 0.02 100 1015.6
20260905130838 55 0 0.0 0.0 0.00 0.10 0.02 100 1015.5
20260905130338 55 0 0.0 0.0 0.00 0.11 0.02 100 1015.5
20260905125838 55 0 0.0 0.0 0.00 0.11 0.02 100 1015.5
20260905125340 55 0 0.0 0.0 0.00 0.11 0.02 100 1015.5
20260905124838 55 0 0.0 0.0 0.00 0.11 0.02 100 1015.5
20260905124338 55 0 0.0 0.0 0.00 0.11 0.02 100 1015.6
20260905123839 55 0 0.0 0.0 0.00 0.11 0.02 100 1015.5
20260905123338 55 0 0.0 0.0 0.00 0.11 0.02 100 1015.5
20260905122838 55 0 0.0 0.0 0.00 0.11 0.02 100 1015.5
20260905122340 55 0 0.0 0.0 0.00 0.11 0.02 100 1015.4
20260905121838 55 0 0.0 0.0 0.00 0.11 0.02 100 1015.3
20260905121339 55 0 0.0 0.0 0.01 0.11 0.02 100 1015.5
20260905120838 55 0 0.0 0.0 0.01 0.11 0.02 100 1015.4
20260905120338 55 0 0.0 0.0 0.01 0.10 0.02 100 1015.3
20260905115838 55 0 0.0 0.0 0.01 0.10 0.02 100 1015.4
20260905115340 55 0 0.0 0.0 0.01 0.10 0.02 100 1015.4
20260905114838 55 0 0.0 0.0 0.01 0.10 0.02 100 1015.3
20260905114338 55 0 0.0 0.0 0.01 0.10 0.02 100 1015.3
20260905113839 55 0 0.0 0.0 0.01 0.10 0.02 100 1015.3
20260905113338 55 0 0.0 0.0 0.01 0.10 0.02 100 1015.2
20260905112838 55 0 0.0 0.0 0.01 0.10 0.02 100 1015.3
20260905112340 55 0 0.0 0.0 0.01 0.10 0.02 100 1015.2
20260905111838 55 0 0.0 0.0 0.01 0.10 0.02 100 1015.2
20260905111338 55 0 0.0 0.0 0.00 0.10 0.01 100 1015.3
20260905110838 55 0 0.0 0.0 0.00 0.10 0.01 100 1015.3
20260905110338 55 0 0.0 0.0 0.00 0.11 0.01 100 1015.3
20260905105838 55 0 0.0 0.0 0.00 0.11 0.01 100 1015.4
20260905105340 55 0 0.0 0.0 0.00 0.11 0.01 100 1015.4
20260905104838 55 0 0.0 0.0 0.00 0.11 0.01 100 1015.2
20260905104338 55 0 0.0 0.0 0.00 0.11 0.01 100 1015.2
20260905103838 55 0 0.0 0.0 0.00 0.11 0.01 100 1015.3
20260905103339 55 0 0.0 0.0 0.00 0.11 0.01 100 1015.2
20260905102838 55 0 0.0 0.0 0.00 0.11 0.01 100 1015.3
20260905101838 55 0 0.0 0.0 0.00 0.11 0.01 100 1015.2
20260905101338 55 0 0.0 0.0 0.00 0.11 0.01 100 1015.1
20260905100838 55 0 0.0 0.0 0.00 0.11 0.01 100 1015.1
20260905100338 55 0 0.0 0.0 0.00 0.12 0.01 100 1015.1
20260905095838 55 0 0.0 0.0 0.00 0.12 0.01 100 1015.2
20260905095342 55 0 0.0 0.0 0.00 0.12 0.01 100 1015.1
20260905094838 55 0 0.0 0.0 0.00 0.12 0.01 100 1015.1
20260905094339 55 0 0.0 0.0 0.00 0.12 0.01 100 1015.0
20260905093839 55 0 0.0 0.0 0.00 0.12 0.01 100 1015.2
20260905093339 55 0 0.0 0.0 0.00 0.12 0.01 100 1015.2
20260905092838 55 0 0.0 0.0 0.00 0.12 0.01 100 1015.1
20260905092340 55 0 0.0 0.0 0.00 0.12 0.01 100 1015.0
20260905091932 55 0 0.0 0.0 0.00 0.12 0.01 100 1015.1
20260905091838 55 0 0.0 0.0 0.00 0.12 0.01 100 1015.1
20260905091338 55 0 0.0 0.0 0.00 0.12 0.01 100 1015.1
20260905090838 55 0 0.0 0.0 0.00 0.12 0.01 100 1015.0
20260905090338 55 0 0.0 0.0 0.00 0.13 0.01 99 1015.1
20260905085838 55 0 0.0 0.0 0.00 0.13 0.01 99 1015.1
20260905084838 55 0 0.0 0.0 0.00 0.13 0.01 99 1015.0
20260905084338 55 0 0.0 0.0 0.00 0.13 0.01 99 1015.0
20260905083838 55 0 0.0 0.0 0.00 0.13 0.01 99 1015.0
20260905083338 55 0 0.0 0.0 0.01 0.13 0.01 99 1014.9
20260905082838 55 0 0.0 0.0 0.01 0.13 0.01 99 1015.0
20260905082340 55 0 0.0 0.0 0.01 0.13 0.01 99 1015.0
20260905081838 55 0 0.0 0.0 0.01 0.13 0.01 99 1014.9
20260905081338 55 0 0.0 0.0 0.01 0.13 0.01 99 1014.8
20260905080838 55 0 0.0 0.0 0.01 0.13 0.01 99 1014.8
20260905080338 55 0 0.0 0.0 0.01 0.13 0.01 99 1014.9
20260905075838 56 0 0.0 0.0 0.01 0.13 0.01 99 1014.8
20260905075341 56 0 0.0 0.0 0.01 0.13 0.01 99 1014.8
20260905074838 56 0 0.0 0.0 0.01 0.13 0.01 99 1014.8
20260905074338 56 0 0.0 0.0 0.01 0.13 0.01 99 1014.7
20260905073838 56 0 0.0 0.0 0.01 0.13 0.01 99 1014.8
20260905073338 56 0 0.0 0.0 0.00 0.13 0.01 99 1014.6
20260905072838 56 0 0.0 0.0 0.00 0.13 0.01 99 1014.7
20260905072339 56 0 0.0 0.0 0.00 0.13 0.00 99 1014.7
20260905071838 56 0 0.0 0.0 0.00 0.13 0.00 99 1014.6
20260905071339 56 0 0.0 0.0 0.00 0.13 0.00 99 1014.6
20260905070838 56 0 0.0 0.0 0.00 0.13 0.00 99 1014.6
20260905070338 56 0 0.0 0.0 0.00 0.14 0.00 99 1014.5
20260905065838 56 0 0.0 0.0 0.00 0.14 0.13 99 1014.5
20260905064838 56 0 0.0 0.0 0.00 0.14 0.13 99 1014.4
20260905063838 56 0 0.0 0.0 0.00 0.14 0.13 99 1014.4
20260905063339 57 0 0.0 0.0 0.00 0.14 0.13 99 1014.3
20260905062838 57 0 0.0 0.0 0.00 0.14 0.13 99 1014.3
20260905062340 57 0 0.0 0.0 0.00 0.14 0.13 99 1014.3
20260905061838 57 0 0.0 0.0 0.00 0.14 0.13 99 1014.3
20260905061338 57 0 0.0 0.0 0.00 0.14 0.13 99 1014.2
20260905060839 57 0 0.0 0.0 0.00 0.14 0.13 99 1014.2
20260905060338 57 0 0.0 0.0 0.00 0.16 0.13 99 1014.2
20260905055838 57 0 0.0 0.0 0.00 0.16 0.13 99 1014.2
20260905054838 57 0 0.0 0.0 0.00 0.16 0.13 99 1014.2
20260905054340 57 0 0.0 0.0 0.00 0.16 0.13 99 1014.2
20260905053838 57 0 0.0 0.0 0.00 0.16 0.13 99 1014.2
20260905053339 57 0 0.0 0.0 0.00 0.16 0.13 99 1014.2
20260905052838 57 0 0.0 0.0 0.00 0.16 0.13 98 1014.3
20260905052339 57 0 0.0 0.0 0.01 0.16 0.13 99 1014.3
20260905051838 57 0 0.0 0.0 0.01 0.16 0.13 99 1014.3
20260905051339 57 0 0.0 0.0 0.01 0.16 0.13 98 1014.3
20260905050838 57 0 0.0 0.0 0.01 0.16 0.13 98 1014.4
20260905050338 57 0 0.0 0.0 0.01 0.16 0.13 98 1014.3
20260905045838 57 0 0.0 3.0 0.01 0.16 0.13 98 1014.1
20260905045340 57 319 0.0 3.0 0.01 0.16 0.13 98 1014.2
20260905044837 57 0 0.0 1.0 0.01 0.16 0.13 98 1014.2
20260905044338 57 0 0.0 0.0 0.01 0.16 0.13 98 1014.2
20260905043838 57 0 0.0 0.0 0.01 0.16 0.13 98 1014.2
20260905043339 57 0 0.0 0.0 0.01 0.16 0.13 98 1014.2
20260905042837 57 0 0.0 0.0 0.01 0.16 0.13 98 1014.2
20260905042337 58 0 0.0 0.0 0.00 0.16 0.13 98 1014.2
20260905041837 58 0 0.0 0.0 0.00 0.16 0.13 98 1014.2
20260905041338 58 0 0.0 0.0 0.00 0.16 0.12 98 1014.1
20260905040837 58 0 0.0 0.0 0.00 0.16 0.12 98 1014.0
20260905040340 58 0 0.0 0.0 0.00 0.18 0.12 98 1013.9
20260905035837 58 0 0.0 0.0 0.00 0.18 0.12 97 1013.8
20260905035341 58 0 0.0 0.0 0.00 0.18 0.12 97 1013.7
20260905034837 58 0 0.0 0.0 0.00 0.18 0.12 97 1013.7
20260905034337 58 0 0.0 0.0 0.00 0.18 0.12 97 1013.6
20260905033837 58 0 0.0 0.0 0.00 0.18 0.12 97 1013.6
20260905033337 58 0 0.0 0.0 0.00 0.18 0.12 97 1013.5
20260905032837 58 0 0.0 0.0 0.00 0.18 0.12 97 1013.5
20260905032340 59 0 0.0 0.0 0.00 0.18 0.12 96 1013.5
20260905031837 59 0 0.0 0.0 0.00 0.18 0.12 96 1013.5
20260905031338 59 0 0.0 0.0 0.00 0.18 0.12 96 1013.2
20260905030837 59 0 0.0 0.0 0.00 0.18 0.12 96 1013.3
20260905030338 60 0 0.0 0.0 0.00 0.20 0.12 95 1013.3
20260905025837 60 0 0.0 0.0 0.00 0.20 0.12 95 1013.3